Flag for Canada Weather past 2 weeks in Brampton, Ontario, Canada

Now
7 °F

Clear.


Feels Like: -5 °F
Forecast: 0 / 22 °F
Wind: 7 mph from Northwest

Location: Toronto Pearson International Airport

Current Time: Mar 5, 2015 at 11:00:14 PM

Latest Report: Mar 5, 2015 at 10:00 PM


Visibility: 15 mi

Pressure: 30.52 "Hg

Humidity: 61%

Dew point: -4 °F

Location of BramptonLocation

Historic Weather in Brampton — Graph

°F

Brampton temperature yesterday

Maximum temperature yesterday: 34 °F (at 12:00 AM)
Minimum temperature yesterday: 18 °F (at 11:00 PM)
Average temperature yesterday: 28 °F

Past Weeks' High & Low Weather Summary

 TemperatureHumidityPressure
High34 °F (Mar 3, 10:00 PM)100% (Mar 3, 8:00 PM)30.80 "Hg (Mar 3, 8:00 PM)
Low-9 °F (Feb 20, 3:00 AM)35% (Feb 20, 5:00 PM)29.57 "Hg (Mar 3, 7:00 PM)
Average11 °F66%30.22 "Hg
* Reported Feb 18 9:00 PM — Mar 5 9:00 PM, Brampton, Weather by CustomWeather, © 2015

Note: Actual official high and low records may vary slightly from our data, if they occured in-between our weather recording intervals... More about our weather records

Advertising

Brampton weather history for previous 24 hours

 ConditionsComfort  
Time TempWeatherWind HumidityBarometerVisibility
9:00 PM
Thu, Mar 5
9 °FClear.12 mph56%30.50 "Hg15 mi
8:00 PM9 °FClear.6 mph47%30.48 "Hg15 mi
7:00 PM10 °FPassing clouds.10 mph47%30.46 "Hg15 mi
6:00 PM12 °FPassing clouds.10 mph48%30.41 "Hg15 mi
5:00 PM14 °FScattered clouds.12 mph44%30.39 "Hg15 mi
4:00 PM14 °FScattered clouds.12 mph44%30.37 "Hg15 mi
3:00 PM14 °FPartly sunny.10 mph44%30.36 "Hg15 mi
2:00 PM12 °FScattered clouds.6 mph44%30.36 "Hg15 mi
1:00 PM12 °FBroken clouds.13 mph48%30.37 "Hg15 mi
12:00 PM10 °FPartly sunny.10 mph56%30.36 "Hg15 mi
11:00 AM9 °FPartly sunny.10 mph61%30.39 "Hg15 mi
10:00 AM7 °FPartly sunny.14 mph61%30.34 "Hg15 mi
9:00 AM5 °FPartly sunny.15 mph66%30.35 "Hg15 mi
8:00 AM3 °FPartly sunny.14 mph66%30.33 "Hg15 mi
7:00 AM3 °FPartly sunny.15 mph66%30.32 "Hg15 mi
6:00 AM3 °FPassing clouds.13 mph66%30.32 "Hg15 mi
5:00 AM5 °FPassing clouds.12 mph60%30.30 "Hg15 mi
4:00 AM5 °FPassing clouds.17 mph60%30.27 "Hg15 mi
3:00 AM9 °FPassing clouds.16 mph47%30.26 "Hg15 mi
2:00 AM10 °FOvercast.16 mph52%30.24 "Hg15 mi
1:00 AM12 °FMostly cloudy.25 mph52%30.19 "Hg15 mi
12:00 AM14 °FOvercast.21 mph62%30.16 "Hg15 mi
11:00 PM
Wed, Mar 4
18 °FPassing clouds.20 mph68%30.12 "Hg15 mi
Weather by CustomWeather, © 2015

See weather overviewHow to use our weather pages